This is the latest recevied weather packets stored in our database for station/object KX4O-13. If no packets are shown the sender has not sent any weather packets the latest 10 day(s).
| Time | Temp. | Humidity | Pressure | Rain* | Wind** | Luminosity | Snow |
|---|---|---|---|---|---|---|---|
| 1777845356 | 17.22° C | 31% | 1014.4 hPa | 0 mm | - | 388 W/m² | - |
| 1777845056 | 16.67° C | 30% | 1014.4 hPa | 0 mm | - | 408 W/m² | - |
| 1777844756 | 17.22° C | 30% | 1014.5 hPa | 0 mm | - | 420 W/m² | - |
| 1777844456 | 17.22° C | 34% | 1014.5 hPa | 0 mm | - | 436 W/m² | - |
| 1777844156 | 17.22° C | 28% | 1014.4 hPa | 0 mm | - | 452 W/m² | - |
| 1777843856 | 16.67° C | 27% | 1014.5 hPa | 0 mm | - | 468 W/m² | - |
| 1777843556 | 16.67° C | 29% | 1014.6 hPa | 0 mm | - | 485 W/m² | - |
| 1777843256 | 17.22° C | 28% | 1014.6 hPa | 0 mm | - | 499 W/m² | - |
| 1777842956 | 17.22° C | 29% | 1014.7 hPa | 0 mm | - | 520 W/m² | - |
| 1777842656 | 17.22° C | 28% | 1014.7 hPa | 0 mm | - | 527 W/m² | - |
| 1777842356 | 16.67° C | 35% | 1014.8 hPa | 0 mm | - | 555 W/m² | - |
| 1777842056 | 16.67° C | 29% | 1014.6 hPa | 0 mm | - | 559 W/m² | - |
| 1777841756 | 17.22° C | 31% | 1014.7 hPa | 0 mm | - | 577 W/m² | - |
| 1777841456 | 16.67° C | 29% | 1014.7 hPa | 0 mm | - | 585 W/m² | - |
| 1777841156 | 17.22° C | 30% | 1014.7 hPa | 0 mm | - | 589 W/m² | - |
| 1777840856 | 17.78° C | 30% | 1014.8 hPa | 0 mm | - | 624 W/m² | - |
| 1777840556 | 17.22° C | 31% | 1014.8 hPa | 0 mm | - | 624 W/m² | - |
| 1777840256 | 16.67° C | 28% | 1014.9 hPa | 0 mm | - | 613 W/m² | - |
| 1777839956 | 16.67° C | 30% | 1014.9 hPa | 0 mm | - | 652 W/m² | - |
| 1777839656 | 16.67° C | 29% | 1015 hPa | 0 mm | - | 670 W/m² | - |
| 1777839356 | 16.67° C | 31% | 1015 hPa | 0 mm | - | 682 W/m² | - |
| 1777839056 | 17.22° C | 30% | 1015 hPa | 0 mm | - | 689 W/m² | - |
| 1777838756 | 16.67° C | 31% | 1015 hPa | 0 mm | - | 701 W/m² | - |
| 1777838456 | 16.67° C | 31% | 1015.2 hPa | 0 mm | - | 714 W/m² | - |
| 1777838156 | 17.22° C | 31% | 1015.2 hPa | 0 mm | - | 728 W/m² | - |
* Rain latest hour (hover to see other rain measurements)
** Current wind speed in m/s (hover to see current wind gust speed)